Regional Weather Roundup
Issued by NWS

Home | Current Version | Previous Version | Graphics & Text | Print | Product List | Glossary On
Versions: 1 2 3 4 5 6 7 8 9 10 11 12 13 14 15 16 17 18 19 20 21 22 23 24 25 26 27 28
000
ASUS45 KGTF 280910
RWRMT
MONTANA HOURLY WEATHER ROUNDUP
NATIONAL WEATHER SERVICE GREAT FALLS MT
300 AM MDT TUE APR 28 2015

NOTE: "FAIR" INDICATES FEW OR NO CLOUDS BELOW 12000 FEET WITH NO
SIGNIFICANT WEATHER AND/OR OBSTRUCTIONS TO VISIBILITY.

MTZ001>007-043-281000-
WEST OF THE DIVIDE

CITY           SKY/WX    TMP DP  RH WIND       PRES   REMARKS
KALISPELL      MOSUNNY   34  31  88 CALM      30.21F
MISSOULA       PTCLDY    38  32  79 S3        30.25S
BUTTE          CLEAR     31  28  89 SE6       30.29S WCI  25
DEER LODGE       N/A     34  28  80 CALM      30.30S
EUREKA           N/A     39  32  75 CALM      30.21S
HAMILTON         N/A     45  30  57 S12       30.23F
LIBBY            N/A     37  32  81 CALM      30.21S
$$

MTZ008-052>055-281000-
SOUTHWEST MONTANA

CITY           SKY/WX    TMP DP  RH WIND       PRES   REMARKS
BOZEMAN        CLEAR     33  29  85 E7        30.27S WCI  27
DILLON         CLEAR     36  30  79 S14       30.27F WCI  27
$$

MTZ009-010-012-014-046-048-049-054-281000-
EAST SLOPES AND CENTRAL MONTANA

CITY           SKY/WX    TMP DP  RH WIND       PRES   REMARKS
CUT BANK       CLEAR     37  28  70 CALM      30.17F
GREAT FALLS    CLEAR     41  32  70 S12       30.19F
MALMSTROM AFB  CLEAR     43  33  68 SW8       30.19F
HELENA         CLEAR     41  31  67 CALM      30.24F
$$

MTZ011-013-016-021-045-047-050-051-281000-
NORTH CENTRAL MONTANA

CITY           SKY/WX    TMP DP  RH WIND       PRES   REMARKS
HAVRE          CLEAR     36  29  75 CALM      30.16F
LEWISTOWN      CLEAR     36  29  75 SE7       30.23S WCI  30
CHINOOK          N/A     46  30  53 CALM      30.18F
FORT BENTON      N/A     43  30  61 CALM      30.20S
$$

MTZ017>020-022>042-056>058-061-062-281000-
EASTERN PLAINS

CITY           SKY/WX    TMP DP  RH WIND       PRES   REMARKS
BAKER          CLEAR     29  27  92 CALM      30.32F FOG
BILLINGS       CLEAR     43  34  70 S7        30.26F
GLASGOW        CLEAR     39  34  82 SE7       30.26S
JORDAN           N/A     40  35  83 CALM      30.27F
LIVINGSTON     CLEAR     35  30  82 NW12      30.27F WCI  27
MILES CITY     CLEAR     37  34  89 S8        30.30F WCI  31
SIDNEY         CLEAR     34  30  86 CALM      30.30F
WOLF POINT     CLEAR     33  30  88 W5        30.29S
BIG TIMBER       N/A     37  30  75 CALM      30.27F
FORSYTH          N/A     43  36  75 SE6       30.29S
PLENTYWOOD       N/A     39  34  81 E5        30.27S
POPLAR           N/A     39  36  87 CALM      30.30R
$$

REGIONAL REPORTS...DAKOTAS

CITY           SKY/WX    TMP DP  RH WIND       PRES   REMARKS
WILLISTON      CLEAR     39  35  86 S3        30.29F
MINOT          CLEAR     39  35  86 SW9       30.27S
DICKINSON      CLEAR     32  29  88 W8        30.29F WCI  25
BEACH          PTSUNNY   32  32 100 SW5       30.32S
CROSBY         FAIR      37  37 100 S10       30.27S WCI  30
WATFORD CITY   FAIR      34  34 100 S3        30.29R
BISMARCK       CLEAR     35  33  92 W5        30.32R
GRAND FORKS    CLOUDY    45  43  93 N6        30.27R FOG
FARGO          CLOUDY    47  44  90 NW10      30.25R
BUFFALO SD       N/A     32  30  92 W6        30.27S WCI  26
RAPID CITY     CLEAR     34  32  92 NW5       30.34S
$$

REGIONAL REPORTS...WYOMING/IDAHO/WASHINGTON

CITY           SKY/WX    TMP DP  RH WIND       PRES   REMARKS
GILLETTE       CLEAR     36  32  85 SW5       30.31F
SHERIDAN       CLEAR     30  28  92 S3        30.30S
BUFFALO WY     CLEAR     37  29  72 W7        30.31S WCI  32
CODY           PTCLDY    39  34  81 SW7       30.29F
YELLOWSTONE LA   N/A     25  22  88 CALM      30.37F
IDAHO FALLS    CLEAR     38  30  73 CALM      30.27F
SALMON         CLEAR     36  32  87 CALM      30.27S
BOISE          CLEAR     50  31  48 SE12      30.18F
SPOKANE        MOCLDY    51  36  56 E12       30.12F
$$

REGIONAL REPORTS...ALBERTA

CITY           SKY/WX    TMP DP  RH WIND       PRES   REMARKS
EDMONTON       CLEAR     41  28  60 SW2       30.00F
CALGARY        MOCLDY    48  28  46 VRB2      30.09F
LETHBRIDGE     CLEAR     43  30  61 S7        30.13S
MEDICINE HAT   CLEAR     39  30  70 SW5       30.12S
$$

REGIONAL REPORTS...SASKATCHEWAN

CITY           SKY/WX    TMP DP  RH WIND       PRES   REMARKS
SWIFT CURRENT  PTCLDY    45  30  57 S18G24    30.15F
SASKATOON      PTCLDY    41  32  70 S6        30.12F
$$



USA.gov is the U.S. government's official web portal to all federal, state and local government web resources and services.